• In Netherlands
  • List of Countries
  • For 7 days
  • Water Temperature
  • Satellite Maps
  • Weather Map
  • Weather Widgets
  • user-avatar
    Login

    Hourly Weather Ondjiwa

    Today, 28 March, Tuesday

    Time Temperature Precipitation Wind Pressure Humidity
    00:00 +22°C° 0 mm 3 mps 669 mmHg 80%
    01:00 +22°C° 0 mm 3 mps 669 mmHg 80%
    02:00 +22°C° 0.1 mm 3 mps 669 mmHg 80%
    03:00 +21°C° 0.1 mm 3 mps 668 mmHg 80%
    04:00 +21°C° 0.1 mm 3 mps 668 mmHg 79%
    05:00 +21°C° 0.2 mm 2 mps 668 mmHg 80%
    06:00 +21°C° 0.2 mm 2 mps 669 mmHg 82%
    07:00 +21°C° 0.2 mm 2 mps 669 mmHg 83%
    08:00 +24°C° 0 mm 3 mps 669 mmHg 73%
    09:00 +25°C° 0 mm 4 mps 670 mmHg 63%
    10:00 +27°C° 0 mm 5 mps 670 mmHg 53%
    11:00 +29°C° 0 mm 5 mps 670 mmHg 46%
    12:00 +30°C° 0 mm 5 mps 670 mmHg 39%
    13:00 +33°C° 0 mm 5 mps 669 mmHg 32%
    14:00 +33°C° 0 mm 5 mps 669 mmHg 32%
    15:00 +33°C° 0 mm 5 mps 668 mmHg 32%
    16:00 +33°C° 0 mm 4 mps 668 mmHg 32%
    17:00 +30°C° 0 mm 4 mps 668 mmHg 38%
    18:00 +28°C° 0 mm 3 mps 668 mmHg 43%
    19:00 +26°C° 0 mm 2 mps 667 mmHg 49%
    20:00 +26°C° 0 mm 2 mps 668 mmHg 50%
    21:00 +25°C° 0 mm 2 mps 668 mmHg 52%
    22:00 +24°C° 0 mm 2 mps 668 mmHg 53%
    23:00 +24°C° 0 mm 2 mps 668 mmHg 55%

    Tomorrow, 29 March, Wednesday

    Time Temperature Precipitation Wind Pressure Humidity
    00:00 +23°C° 0 mm 2 mps 668 mmHg 56%
    01:00 +23°C° 0 mm 2 mps 668 mmHg 58%
    02:00 +21°C° 0 mm 2 mps 667 mmHg 59%
    03:00 +21°C° 0 mm 2 mps 667 mmHg 61%
    04:00 +20°C° 0 mm 2 mps 667 mmHg 63%
    05:00 +21°C° 0 mm 2 mps 667 mmHg 63%
    06:00 +21°C° 0 mm 2 mps 668 mmHg 64%
    07:00 +21°C° 0 mm 2 mps 668 mmHg 65%
    08:00 +25°C° 0 mm 3 mps 669 mmHg 54%
    09:00 +28°C° 0 mm 5 mps 669 mmHg 44%
    10:00 +30°C° 0 mm 6 mps 670 mmHg 34%
    11:00 +32°C° 0 mm 6 mps 670 mmHg 31%
    12:00 +33°C° 0 mm 6 mps 669 mmHg 29%
    13:00 +34°C° 0 mm 5 mps 669 mmHg 27%
    14:00 +34°C° 0 mm 5 mps 668 mmHg 27%
    15:00 +34°C° 0 mm 5 mps 667 mmHg 27%
    16:00 +34°C° 0 mm 4 mps 667 mmHg 27%
    17:00 +32°C° 0 mm 4 mps 667 mmHg 32%
    18:00 +28°C° 0 mm 3 mps 667 mmHg 37%
    19:00 +26°C° 0 mm 2 mps 666 mmHg 42%
    20:00 +26°C° 0 mm 2 mps 667 mmHg 43%
    21:00 +25°C° 0 mm 2 mps 667 mmHg 44%
    22:00 +24°C° 0 mm 3 mps 668 mmHg 45%
    23:00 +24°C° 0 mm 3 mps 668 mmHg 47%

    Day after tomorrow, 30 March, Thursday

    Time Temperature Precipitation Wind Pressure Humidity
    00:00 +22°C° 0 mm 3 mps 668 mmHg 48%
    01:00 +22°C° 0 mm 3 mps 667 mmHg 49%
    02:00 +21°C° 0 mm 3 mps 667 mmHg 51%
    03:00 +21°C° 0 mm 3 mps 667 mmHg 52%
    04:00 +20°C° 0 mm 3 mps 667 mmHg 53%
    05:00 +20°C° 0 mm 3 mps 667 mmHg 54%
    06:00 +20°C° 0 mm 3 mps 668 mmHg 55%
    07:00 +20°C° 0 mm 3 mps 668 mmHg 56%
    08:00 +23°C° 0 mm 4 mps 669 mmHg 48%
    09:00 +27°C° 0 mm 5 mps 670 mmHg 40%
    10:00 +30°C° 0 mm 7 mps 671 mmHg 33%
    11:00 +32°C° 0 mm 6 mps 670 mmHg 31%
    12:00 +33°C° 0 mm 5 mps 670 mmHg 30%
    13:00 +34°C° 0 mm 5 mps 669 mmHg 28%
    14:00 +34°C° 0 mm 4 mps 669 mmHg 29%
    15:00 +34°C° 0 mm 4 mps 668 mmHg 29%
    16:00 +33°C° 0 mm 4 mps 668 mmHg 30%
    17:00 +30°C° 0 mm 3 mps 668 mmHg 35%
    18:00 +28°C° 0 mm 3 mps 668 mmHg 40%
    19:00 +27°C° 0 mm 2 mps 668 mmHg 45%
    20:00 +26°C° 0 mm 2 mps 668 mmHg 44%
    21:00 +26°C° 0 mm 2 mps 669 mmHg 44%
    22:00 +26°C° 0 mm 2 mps 670 mmHg 43%
    23:00 +25°C° 0.1 mm 2 mps 669 mmHg 47%

    31 March, Friday

    Time Temperature Precipitation Wind Pressure Humidity
    00:00 +24°C° 0.1 mm 2 mps 669 mmHg 50%
    01:00 +24°C° 0.1 mm 2 mps 669 mmHg 54%
    02:00 +23°C° 0 mm 2 mps 669 mmHg 58%
    03:00 +23°C° 0 mm 2 mps 668 mmHg 61%
    04:00 +21°C° 0 mm 2 mps 668 mmHg 65%
    05:00 +21°C° 0 mm 2 mps 669 mmHg 64%
    06:00 +21°C° 0 mm 3 mps 669 mmHg 64%
    07:00 +21°C° 0 mm 3 mps 670 mmHg 63%
    08:00 +25°C° 0 mm 4 mps 670 mmHg 54%
    09:00 +27°C° 0 mm 5 mps 671 mmHg 46%
    10:00 +29°C° 0 mm 7 mps 671 mmHg 38%
    11:00 +30°C° 0 mm 6 mps 671 mmHg 35%
    12:00 +33°C° 0 mm 5 mps 670 mmHg 33%
    13:00 +34°C° 0 mm 5 mps 670 mmHg 31%
    14:00 +34°C° 0 mm 5 mps 669 mmHg 30%
    15:00 +34°C° 0 mm 4 mps 669 mmHg 29%
    16:00 +34°C° 0 mm 4 mps 668 mmHg 28%
    17:00 +30°C° 0 mm 3 mps 668 mmHg 32%
    18:00 +28°C° 0 mm 3 mps 668 mmHg 35%
    19:00 +26°C° 0 mm 2 mps 668 mmHg 38%
    20:00 +25°C° 0 mm 2 mps 669 mmHg 38%
    21:00 +25°C° 0 mm 2 mps 669 mmHg 37%
    22:00 +24°C° 0 mm 2 mps 669 mmHg 37%
    23:00 +23°C° 0 mm 2 mps 669 mmHg 39%

    1 April, Saturday

    Time Temperature Precipitation Wind Pressure Humidity
    00:00 +23°C° 0 mm 2 mps 669 mmHg 40%
    01:00 +21°C° 0 mm 3 mps 668 mmHg 42%
    02:00 +21°C° 0 mm 3 mps 668 mmHg 46%
    03:00 +20°C° 0 mm 2 mps 668 mmHg 49%
    04:00 +20°C° 0 mm 2 mps 668 mmHg 53%
    05:00 +20°C° 0 mm 2 mps 668 mmHg 55%
    06:00 +20°C° 0 mm 2 mps 669 mmHg 57%
    07:00 +20°C° 0 mm 2 mps 669 mmHg 59%
    08:00 +24°C° 0 mm 3 mps 670 mmHg 50%
    09:00 +27°C° 0 mm 4 mps 671 mmHg 41%
    10:00 +30°C° 0 mm 5 mps 671 mmHg 32%
    11:00 +32°C° 0 mm 5 mps 671 mmHg 30%
    12:00 +33°C° 0 mm 4 mps 670 mmHg 27%
    13:00 +35°C° 0 mm 4 mps 669 mmHg 24%
    14:00 +34°C° 0 mm 4 mps 669 mmHg 24%
    15:00 +34°C° 0 mm 3 mps 668 mmHg 23%
    16:00 +34°C° 0 mm 3 mps 668 mmHg 22%
    17:00 +31°C° 0 mm 3 mps 668 mmHg 26%
    18:00 +28°C° 0 mm 2 mps 668 mmHg 31%
    19:00 +26°C° 0 mm 2 mps 668 mmHg 35%
    20:00 +25°C° 0 mm 2 mps 668 mmHg 36%
    21:00 +25°C° 0 mm 2 mps 668 mmHg 36%
    22:00 +24°C° 0 mm 2 mps 669 mmHg 37%
    23:00 +23°C° 0 mm 2 mps 668 mmHg 38%

    2 April, Sunday

    Time Temperature Precipitation Wind Pressure Humidity
    00:00 +23°C° 0 mm 2 mps 668 mmHg 39%
    01:00 +21°C° 0 mm 2 mps 668 mmHg 41%
    02:00 +20°C° 0 mm 2 mps 668 mmHg 43%
    03:00 +20°C° 0 mm 2 mps 668 mmHg 44%
    04:00 +19°C° 0 mm 2 mps 668 mmHg 46%
    05:00 +19°C° 0 mm 2 mps 668 mmHg 47%
    06:00 +20°C° 0 mm 2 mps 668 mmHg 48%
    07:00 +20°C° 0 mm 2 mps 669 mmHg 49%
    08:00 +24°C° 0 mm 3 mps 669 mmHg 40%
    09:00 +28°C° 0 mm 4 mps 670 mmHg 31%
    10:00 +32°C° 0 mm 5 mps 671 mmHg 22%
    11:00 +33°C° 0 mm 5 mps 670 mmHg 20%
    12:00 +34°C° 0 mm 5 mps 670 mmHg 19%
    13:00 +35°C° 0 mm 4 mps 669 mmHg 17%
    14:00 +35°C° 0 mm 4 mps 669 mmHg 18%
    15:00 +35°C° 0 mm 4 mps 668 mmHg 18%
    16:00 +35°C° 0 mm 4 mps 668 mmHg 18%
    17:00 +31°C° 0 mm 3 mps 668 mmHg 23%
    18:00 +28°C° 0 mm 3 mps 667 mmHg 27%
    19:00 +26°C° 0 mm 2 mps 667 mmHg 32%
    20:00 +25°C° 0 mm 2 mps 667 mmHg 33%
    21:00 +24°C° 0 mm 2 mps 668 mmHg 34%
    22:00 +24°C° 0 mm 1 mps 668 mmHg 35%
    23:00 +23°C° 0 mm 2 mps 668 mmHg 36%
    Show more